Showing default

ESSA 3 (TOS-A), 2435

Orbit data source: Space-Track

ESSA 3 (TOS-A), 2435 is a payload satellite owned by ESSA (US) in SSO that was launched on Sun, 02 Oct 1966 UTC via a THOR DELTA E launch vehicle from the Air Force Western Test Range (AFWTR). Payloads include a variety of satellites, spacecraft, and rockets equipped with specific instruments for various scientific and technological missions. These include communications satellites like Starlink; space stations such as the ISS; scientific satellites like the Hubble; Earth observation satellites from companies like Planet Labs, Umbra, and HawkEye 360; GPS; miniature CubeSats for education and research; and military/defense satellites.

Loading next visibility...
ESSA 3 (TOS-A) details
Identifier
2435, 1966-087A
Orbit
SSO
Last TLE update12 hours ago
Origin
Flag of USESSA (US)
ManufacturerRCA/East Windsor
MissionNon-operational Civil Weather
Bus & MotorTIROS I, Unknown motor
Mass148 kg wet, 148 kg dry
Launch date (UTC)
1966-10-02 (58 years ago)
Launch vehicle
THOR DELTA E
Launch site
Air Force Western Test Range (AFWTR)
Object type
Payload
Rocket body
Debris
Shape & HBRCyl, 1.1 m
Radar Cross Section0.994 m², Medium (>0.1 m² and < 1m²)

Expand to show TLE details & history

TLE from 12 hours ago
0 ESSA 3 (TOS-A)
1 02435U 66087A   24356.77072104 -.00000014  00000-0  16424-3 0  9995
2 02435 101.0848 280.8356 0064305  40.7738 347.5402 12.56870179670865
Epoch: 2024-12-21T18:29Z
Definitive object data (Epoch: 2024-12-21T18:29:50.297Z)
Latitude27.62309°
Longitude-93.29629°
Altitude1,389.958 km
Speed7.189 km/s
True Right ascension18h 19m 55s
True Declination27° 29' 37"
Sunlit
Object was in daylight at TLE epoch
Visualization TLE readout
Latitude53.79933°
Longitude-102.43389°
Altitude1,396.064 km
Speed7.189 km/s
Apparent Right ascension17h 26m 33s
Apparent Declination12° 57' 13"
Sunlit
Object is in daylight
Visualization observer readout
Local Sidereal Time05:10:46
Azimuth355.182° N
Elevation-37.003°
Doppler factor1
Orbital elements
Apogee altitude1,483.621 km
Perigee altitude1,383.157 km
Semi-major axis7,811.526 km
Eccentricity0.0064305
Inclination101.0848°
RAAN280.8356°
Arg. of periapsis40.7738°
True anomaly347.37996°
Mean anomaly347.5402°
Eccentric anomaly347.46021°
Mean motion3.14369 °/min
BSTAR0.00016424
Orbital period114.52 mins
Loading maneuver chart data...
Loading historical data...
Loading historical data...
Loading historical data...
Loading historical data...
Loading historical data...
Loading historical data...
Loading historical data...

ESSA 3 (TOS-A) Visibility forecast

Observer location: undefined°, undefined

Span
Click to sort rows by Start time (UTC) header in descending order
Start Az.
Max El. time (UTC)
Max El. Az.
Max El.
End time (UTC)
End Az.
10 mins2024-12-22 06:29:03.980Z53.411° ENE2024-12-22 06:34:03.980Z94.856° ESE19.066°2024-12-22 06:39:03.980Z133.943° SE
15 mins2024-12-22 08:20:03.980Z13.936° NNE2024-12-22 08:27:03.980Z289.99° WNW44.648°2024-12-22 08:35:03.980Z203.84° SW
8 mins2024-12-22 10:15:03.980Z336.449° NNW2024-12-22 10:18:03.980Z311.697° NW17.439°2024-12-22 10:23:03.980Z272.27° WNW
10 mins2024-12-22 17:27:03.980Z99.875° ESE2024-12-22 17:32:03.980Z51.685° ENE23.997°2024-12-22 17:37:03.980Z8.681° NNE
14 mins2024-12-22 19:17:03.980Z174.696° S2024-12-22 19:23:03.980Z234.164° WSW42.728°2024-12-22 19:31:03.980Z338.242° N
|